TimeAKST,TemperatureF,Dew PointF,Humidity,Sea Level PressureIn,VisibilityMPH,Wind Direction,Wind SpeedMPH,Gust SpeedMPH,PrecipitationIn,Events,Conditions,WindDirDegrees,DateUTC
12:00 AM,30.2,26.6,86,29.23,2.0,North,8.1,-,0.00,Snow,Light Snow,10,2013-02-28 09:00:00
12:09 AM,28.4,26.6,93,29.24,1.2,North,6.9,-,0.00,Snow,Light Snow,10,2013-02-28 09:09:00
12:14 AM,28.4,28.4,100,29.24,0.8,North,8.1,-,0.00,Snow,Light Snow,10,2013-02-28 09:14:00
12:36 AM,28.4,28.4,100,29.24,1.5,North,9.2,-,0.02,Snow,Light Snow,350,2013-02-28 09:36:00
12:49 AM,28.4,28.4,100,29.24,1.8,North,9.2,-,0.02,Snow,Light Snow,360,2013-02-28 09:49:00
12:53 AM,28.9,28.0,96,29.25,1.8,North,9.2,-,0.02,Snow,Light Snow,360,2013-02-28 09:53:00
1:22 AM,28.4,28.4,100,29.24,2.0,North,9.2,-,0.01,Snow,Light Snow,10,2013-02-28 10:22:00
1:30 AM,28.4,28.4,100,29.24,1.8,North,5.8,-,0.01,Snow,Light Snow,360,2013-02-28 10:30:00
1:39 AM,28.4,28.4,100,29.24,3.0,NNE,6.9,-,0.01,Snow,Light Snow,20,2013-02-28 10:39:00
1:53 AM,30.0,30.0,100,29.25,4.0,Variable,3.5,-,0.01,Snow,Light Snow,0,2013-02-28 10:53:00
3:53 AM,32.0,28.9,88,29.27,10.0,NNE,5.8,-,0.00,,Overcast,20,2013-02-28 12:53:00
4:14 AM,30.2,28.4,93,29.26,10.0,North,6.9,-,N/A,,Overcast,10,2013-02-28 13:14:00
4:53 AM,30.9,28.9,92,29.28,3.0,NNE,4.6,-,0.00,Snow,Light Snow,30,2013-02-28 13:53:00
5:02 AM,30.2,30.2,100,29.27,2.0,NNE,6.9,-,0.00,Snow,Light Snow,20,2013-02-28 14:02:00
5:17 AM,30.2,30.2,100,29.28,1.8,NNE,4.6,-,0.00,Snow,Light Snow,30,2013-02-28 14:17:00
5:24 AM,30.2,30.2,100,29.28,2.0,NNE,3.5,-,0.00,Snow,Light Snow,20,2013-02-28 14:24:00
5:32 AM,30.2,30.2,100,29.28,2.0,NNE,3.5,-,0.01,Snow,Light Snow,20,2013-02-28 14:32:00
5:53 AM,30.0,30.0,100,29.30,1.8,North,4.6,-,0.01,Snow,Light Snow,10,2013-02-28 14:53:00
6:01 AM,30.2,30.2,100,29.29,1.8,NNE,4.6,-,0.00,Snow,Light Snow,20,2013-02-28 15:01:00
6:15 AM,30.2,30.2,100,29.29,1.5,NNE,3.5,-,0.01,Snow,Light Snow,20,2013-02-28 15:15:00
6:42 AM,30.2,30.2,100,29.30,6.0,NNE,5.8,-,0.01,Snow,Light Snow,20,2013-02-28 15:42:00
6:50 AM,30.2,30.2,100,29.30,9.0,North,4.6,-,0.01,,Overcast,10,2013-02-28 15:50:00
6:53 AM,30.0,30.0,100,29.31,9.0,North,4.6,-,0.01,,Overcast,10,2013-02-28 15:53:00
7:28 AM,30.2,30.2,100,29.31,5.0,North,5.8,-,0.00,Snow,Light Snow,350,2013-02-28 16:28:00
7:53 AM,28.9,28.9,100,29.33,6.0,North,4.6,-,0.00,Snow,Light Snow,350,2013-02-28 16:53:00
8:05 AM,28.4,28.4,100,29.32,2.0,Calm,Calm,-,0.00,Snow,Light Snow,0,2013-02-28 17:05:00
8:34 AM,28.4,28.4,100,29.33,1.8,North,5.8,-,0.01,Snow,Light Snow,350,2013-02-28 17:34:00
8:38 AM,28.4,28.4,100,29.33,2.0,North,5.8,-,0.01,Snow,Light Snow,350,2013-02-28 17:38:00
8:48 AM,28.4,28.4,100,29.33,4.0,NNW,6.9,-,0.01,Snow,Light Snow,340,2013-02-28 17:48:00
8:53 AM,28.9,28.0,96,29.34,7.0,NNW,6.9,-,0.01,Snow,Light Snow,340,2013-02-28 17:53:00
9:53 AM,28.9,28.0,96,29.36,7.0,North,5.8,-,0.00,Snow,Light Snow,360,2013-02-28 18:53:00
10:53 AM,30.9,28.0,89,29.37,10.0,North,5.8,-,0.00,,Overcast,350,2013-02-28 19:53:00
11:53 AM,33.1,28.9,85,29.39,6.0,NNE,3.5,-,0.00,,Overcast,20,2013-02-28 20:53:00
12:53 PM,35.1,28.9,78,29.39,10.0,Calm,Calm,-,N/A,,Clear,0,2013-02-28 21:53:00
1:53 PM,34.0,28.9,82,29.39,10.0,Calm,Calm,-,N/A,,Mostly Cloudy,0,2013-02-28 22:53:00
2:53 PM,34.0,30.0,85,29.39,10.0,SW,5.8,-,N/A,,Mostly Cloudy,230,2013-02-28 23:53:00
3:53 PM,32.0,28.9,88,29.39,10.0,SSW,5.8,-,N/A,,Mostly Cloudy,200,2013-03-01 00:53:00
4:12 PM,33.8,28.4,81,29.38,10.0,SW,5.8,-,N/A,,Overcast,230,2013-03-01 01:12:00
4:53 PM,34.0,28.0,79,29.41,8.0,WNW,5.8,-,0.00,,Overcast,300,2013-03-01 01:53:00
5:53 PM,28.0,25.0,88,29.42,10.0,WSW,9.2,-,N/A,,Overcast,240,2013-03-01 02:53:00
6:53 PM,26.1,24.1,92,29.44,9.0,WSW,11.5,-,0.00,,Overcast,240,2013-03-01 03:53:00
7:07 PM,26.6,24.8,93,29.44,10.0,WSW,11.5,-,N/A,,Overcast,240,2013-03-01 04:07:00
7:53 PM,25.0,24.1,96,29.46,10.0,WSW,11.5,-,N/A,,Overcast,240,2013-03-01 04:53:00
8:53 PM,23.0,21.9,96,29.48,10.0,SW,6.9,-,N/A,,Clear,230,2013-03-01 05:53:00
9:53 PM,21.9,21.9,100,29.49,10.0,SW,8.1,-,N/A,,Scattered Clouds,230,2013-03-01 06:53:00
10:53 PM,19.0,18.0,96,29.52,10.0,NE,4.6,-,N/A,,Partly Cloudy,50,2013-03-01 07:53:00
11:53 PM,19.0,19.0,100,29.53,10.0,Calm,Calm,-,N/A,,Overcast,0,2013-03-01 08:53:00